Wind_Speed
36 36 34 34 33 33 33 33 33 33 33 32 30 29 28 27 26 25 25 24 24 24 23 23 23 23 22 22 22 22 23 24 26 29 31 33 35 37 38 39 40 41 41 41 41 41 41 42 42 42 42 41 41 41 41 42 43 44 45 47 48 50 51 53 54 56 57 58 59 60 61 63 64 65 66 67 67 67 67 67 66 66 65 64 63 62
35 35 34 33 32 31 31 31 31 32 32 32 31 30 29 28 27 26 26 25 24 24 23 23 23 23 23 23 24 24 25 26 27 28 29 31 32 34 35 37 38 39 40 41 42 43 44 44 45 45 44 44 44 44 45 45 46 47 49 50 51 53 54 55 56 57 58 59 61 62 63 63 64 65 66 67 67 67 66 66 65 64 63 62 61 60
35 34 33 32 31 31 30 30 30 30 31 31 30 30 30 29 29 28 27 26 25 25 24 24 24 24 25 25 26 27 28 29 30 31 32 33 34 35 36 37 38 39 39 40 41 42 43 43 44 44 44 45 45 46 46 47 49 50 51 52 54 55 55 56 57 57 58 58 59 60 61 62 62 63 64 64 64 64 64 63 63 62 61 60 59 59
34 33 33 32 31 31 30 29 29 29 29 29 29 29 29 29 29 28 28 27 26 26 26 26 26 26 26 27 28 29 30 31 32 33 34 35 36 37 38 38 39 40 40 41 42 42 43 44 45 46 46 47 47 48 49 50 51 52 54 55 55 56 56 56 57 57 57 57 58 58 59 59 60 61 61 61 62 62 62 61 61 60 60 59 58 58
33 33 32 32 31 31 30 29 29 29 29 28 28 28 28 28 28 28 28 28 27 27 27 27 27 28 28 29 30 31 32 33 35 36 37 38 39 40 41 42 43 44 44 44 45 45 46 47 47 48 49 50 50 51 52 53 54 55 56 56 57 57 57 57 56 56 56 56 56 57 57 57 58 58 59 59 59 60 60 60 60 59 59 58 58 58
32 32 32 31 31 30 30 30 29 29 29 28 28 28 28 27 27 27 27 27 27 27 27 27 28 28 29 30 31 32 33 34 36 37 39 40 42 43 44 45 45 46 46 47 47 47 47 48 49 49 50 51 52 53 54 55 55 56 56 57 57 57 57 56 56 55 55 55 55 55 55 56 56 56 57 57 57 57 58 58 58 58 58 58 57 57
31 31 31 31 31 30 30 30 30 29 29 29 28 28 28 28 28 28 27 27 27 27 27 27 28 28 29 30 31 32 33 35 36 37 39 40 41 42 43 44 45 45 46 46 46 46 47 47 48 48 49 50 51 52 53 54 54 55 55 55 55 55 55 55 55 54 54 54 54 54 54 54 54 54 55 55 55 56 56 56 56 57 57 57 57 57
31 31 31 30 30 30 30 30 30 30 30 30 30 29 29 29 29 29 29 28 28 28 28 28 28 28 29 29 30 31 33 34 35 37 38 39 40 41 42 43 43 44 44 45 45 45 45 45 45 45 46 46 47 48 49 50 50 51 52 52 52 53 53 53 53 53 53 53 53 52 53 53 53 53 53 54 54 54 55 55 56 56 56 56 57 57
30 30 30 30 31 31 31 31 31 32 32 32 31 31 31 31 31 30 30 30 30 30 30 30 30 30 30 30 30 31 32 33 34 35 37 38 39 40 41 42 42 43 43 43 43 43 43 43 43 43 43 43 43 44 45 45 46 47 48 48 49 50 50 51 51 51 51 51 52 52 52 52 52 53 53 53 54 54 55 55 55 56 56 56 57 57
31 31 31 31 31 31 31 32 32 32 33 33 33 33 33 33 33 32 32 32 32 33 33 33 33 32 32 32 32 32 32 33 34 35 36 37 38 39 40 40 41 42 42 42 43 43 43 43 43 43 43 43 43 44 44 45 45 46 46 47 48 48 49 49 50 50 50 51 51 52 52 52 53 53 53 54 54 55 55 55 56 56 57 57 57 58
31 31 31 32 32 32 32 32 32 33 33 33 33 34 34 34 34 34 34 34 34 34 35 35 35 35 35 35 35 35 35 35 35 36 36 37 38 38 39 40 41 41 42 43 43 43 44 44 45 45 45 45 45 46 46 46 46 47 47 48 48 48 49 49 50 50 50 51 51 52 52 52 53 53 54 54 55 55 55 56 56 57 57 57 58 58
32 32 33 33 33 33 33 33 33 34 34 34 34 34 34 35 35 36 36 36 36 36 36 37 37 37 37 37 37 37 37 38 38 38 39 39 40 40 40 41 42 42 43 43 44 44 45 45 46 46 46 47 47 47 47 48 48 48 48 48 49 49 49 49 50 50 50 51 51 52 52 53 53 54 54 54 55 55 56 56 57 57 57 58 58 59
33 33 34 34 34 34 34 35 35 35 35 35 35 36 36 36 36 37 37 37 38 38 38 39 39 39 40 40 40 40 40 40 41 41 41 41 41 42 42 42 43 43 44 44 45 45 46 46 47 47 47 47 48 48 48 49 49 49 49 49 49 50 50 50 50 50 51 51 52 52 52 53 53 54 54 55 55 56 56 57 57 58 58 58 59 59
34 34 34 35 35 35 36 36 36 36 36 37 37 37 37 38 38 38 39 39 39 40 40 41 41 41 42 42 42 42 42 43 43 43 43 43 43 43 43 44 44 45 45 45 45 46 46 47 47 47 48 48 48 49 49 49 49 50 50 50 50 50 50 50 51 51 51 52 52 52 53 53 54 54 55 55 56 56 57 57 57 58 58 59 59 60
34 35 35 35 36 36 36 37 37 37 37 38 38 38 39 39 39 40 40 41 41 41 42 42 43 43 43 44 44 44 44 44 45 45 45 45 45 45 45 45 46 46 46 46 46 47 47 47 47 48 48 48 49 49 49 49 50 50 50 50 50 50 50 51 51 51 51 52 52 53 53 53 54 54 55 55 56 56 57 57 58 58 58 59 59 60
35 35 36 36 36 37 37 37 38 38 38 39 39 39 40 40 41 41 41 42 42 43 43 43 44 44 45 45 45 45 45 46 46 46 46 46 46 46 47 47 47 47 47 47 47 48 48 48 48 48 49 49 49 49 49 49 50 50 50 50 50 50 50 51 51 51 51 52 52 52 53 53 54 54 55 55 55 56 56 57 57 57 58 58 59 59
36 36 36 37 37 37 38 38 39 39 39 40 40 40 41 41 41 42 42 43 43 43 44 44 44 45 45 46 46 46 46 47 47 47 47 47 48 48 48 48 48 48 48 48 48 49 49 49 49 49 49 49 49 49 49 49 50 50 50 50 50 50 50 50 51 51 51 52 52 52 53 53 53 54 54 54 55 55 55 56 56 56 57 57 58 58
36 37 37 38 38 39 39 40 40 40 41 41 41 41 42 42 42 43 43 43 43 44 44 44 45 45 46 46 47 47 47 48 48 48 48 48 49 49 49 49 49 49 49 49 49 49 49 49 49 49 49 49 49 49 49 49 49 49 50 50 50 50 50 50 50 51 51 51 51 52 52 52 52 53 53 53 54 54 54 54 55 55 55 56 56 57
37 37 38 38 39 40 40 41 41 41 42 42 42 42 42 43 43 43 44 44 44 44 45 45 45 46 46 46 47 48 48 48 48 49 49 49 49 50 50 50 50 50 50 49 50 50 49 49 49 49 49 49 49 49 49 49 49 49 49 49 49 49 49 50 50 50 50 50 50 51 51 51 51 51 51 52 52 52 52 53 53 53 54 54 55 55
37 38 39 39 40 41 41 42 42 42 43 43 43 43 43 44 44 44 45 45 45 45 45 46 46 46 46 47 47 48 48 48 48 48 48 49 49 49 50 50 50 50 50 50 50 50 50 50 49 49 49 49 49 49 49 49 49 49 49 49 49 49 49 49 49 49 49 49 49 49 49 49 49 49 50 50 50 50 50 51 51 51 52 52 53 53
38 39 39 40 41 42 42 43 43 43 44 44 44 44 44 45 45 45 45 46 46 46 46 46 46 46 47 47 47 47 47 47 47 47 48 48 48 49 49 49 49 49 50 50 50 50 50 50 50 50 49 49 49 49 49 49 49 48 48 48 48 48 47 47 47 47 47 47 47 47 47 47 47 47 47 47 47 48 48 48 49 49 50 50 51 51
39 39 40 41 42 42 43 44 44 44 45 45 45 45 45 46 46 46 46 46 46 47 47 47 47 47 47 46 47 47 47 46 46 47 47 47 47 48 48 48 49 49 49 50 50 50 50 50 50 50 50 50 50 49 49 49 48 48 47 47 47 46 46 46 46 46 45 45 45 45 45 45 45 44 45 45 45 45 45 46 46 47 47 48 49 49
39 40 41 42 43 43 44 44 45 45 45 46 46 46 46 46 46 47 47 47 47 47 47 47 47 47 46 46 46 46 46 46 46 46 47 47 47 48 48 48 49 49 50 50 50 50 50 50 50 50 50 50 50 49 49 48 48 47 46 46 45 45 45 44 44 44 43 43 43 42 42 42 42 42 41 41 42 42 42 43 43 44 45 46 46 47
40 41 42 43 43 44 45 45 46 46 46 46 47 47 47 47 47 47 47 47 47 47 47 47 47 46 46 46 46 46 46 46 47 47 47 48 48 48 49 49 49 50 50 50 50 50 50 50 50 50 50 49 49 48 48 47 47 46 45 45 44 44 43 43 42 42 41 41 40 40 39 39 39 38 38 38 39 39 39 40 41 41 42 43 44 45
41 42 42 43 44 45 45 46 46 46 47 47 47 48 48 48 48 48 48 48 48 47 47 47 46 46 46 46 46 47 47 47 48 48 48 49 49 49 50 50 50 50 50 50 50 50 50 50 49 49 49 48 48 47 47 46 45 45 44 43 43 42 42 41 40 40 39 39 38 38 37 37 36 36 36 36 36 36 37 37 38 39 40 41 42 43
41 42 43 44 45 45 46 46 47 47 47 47 48 48 48 48 48 48 48 48 48 47 47 47 46 46 46 47 47 48 48 49 49 49 50 50 50 50 50 50 50 50 50 50 50 49 49 48 48 48 47 47 46 46 45 45 44 43 43 42 41 41 40 39 39 38 38 37 36 36 35 35 35 34 34 34 34 34 35 35 36 37 37 38 39 40
42 43 44 45 45 46 47 47 47 48 48 48 48 48 49 49 49 48 48 48 47 47 47 47 47 47 47 48 48 49 50 50 51 51 51 51 51 51 51 50 50 49 49 49 49 48 47 47 47 46 46 45 45 44 44 43 42 42 41 40 40 39 39 38 38 37 36 36 35 35 34 34 34 34 33 33 34 34 34 34 35 35 36 37 38 39
43 44 45 45 46 47 47 48 48 48 48 49 49 49 49 49 48 48 48 48 48 47 47 47 47 48 49 49 50 50 51 51 52 52 52 51 51 51 50 50 49 48 48 48 47 47 46 46 45 45 44 44 43 43 42 42 41 40 40 39 39 38 38 37 37 36 36 35 35 34 34 34 34 34 34 34 34 34 34 34 34 35 35 36 37 37
44 45 46 46 47 48 48 49 49 49 49 49 49 49 49 49 48 48 48 48 48 48 48 48 49 49 50 51 51 52 52 52 52 52 52 51 50 50 49 49 48 47 46 46 46 46 45 44 44 44 43 43 42 42 41 41 40 40 39 39 38 38 37 37 36 36 35 35 35 34 34 34 34 34 34 34 34 34 34 35 35 35 35 35 36 36
45 46 47 47 48 49 49 49 50 50 50 50 50 49 49 49 48 48 48 48 48 49 49 50 50 51 52 52 53 53 52 52 52 51 51 50 49 49 48 47 46 46 45 44 44 44 44 44 43 43 42 42 42 41 41 40 40 39 39 39 38 38 37 37 36 36 35 35 35 35 35 35 35 35 35 35 35 35 35 35 35 35 35 35 35 36
45 46 47 48 49 49 50 50 50 50 50 50 50 50 49 49 49 49 49 49 49 50 51 51 52 53 53 53 53 53 52 52 51 50 49 48 47 47 46 45 45 44 44 43 43 43 43 43 43 42 42 42 41 41 41 40 40 40 39 39 38 38 37 37 36 36 36 36 35 35 35 35 35 35 35 35 35 36 36 36 36 36 35 35 35 36
46 47 48 49 49 50 50 50 50 50 50 50 50 50 49 49 49 49 49 50 50 51 52 53 54 54 54 54 53 53 52 51 50 49 47 46 46 45 45 44 43 43 43 42 42 42 42 42 43 42 42 42 41 41 41 41 40 40 40 39 39 39 38 38 37 37 37 36 36 36 36 36 36 36 36 36 36 36 36 36 36 36 36 36 36 36
47 48 49 49 50 50 51 51 51 51 51 50 50 50 50 49 49 50 50 50 51 52 53 54 55 55 55 54 53 52 51 50 49 47 46 45 44 44 43 43 42 42 42 41 41 41 41 42 42 42 42 42 42 42 42 41 41 41 41 40 40 40 40 39 39 38 38 37 37 37 37 36 36 36 36 37 37 37 37 37 37 37 37 36 36 36
47 48 49 50 50 51 51 51 51 51 51 50 50 50 50 50 50 50 51 52 52 53 54 55 55 55 54 54 53 51 50 49 47 46 45 44 43 43 43 42 42 41 41 41 41 41 40 41 41 42 42 42 42 42 42 42 42 42 42 42 41 41 41 40 40 39 39 39 38 38 38 38 37 37 37 37 37 38 38 38 38 37 37 37 37 37
48 49 49 50 51 51 51 51 51 51 51 50 50 50 50 50 50 51 52 53 54 54 55 55 55 54 53 52 51 50 49 48 46 45 44 43 42 42 42 42 41 41 41 40 40 40 40 40 41 41 41 42 43 43 43 43 43 43 43 43 43 43 42 42 41 41 41 40 40 40 39 39 39 38 38 38 38 38 38 38 38 38 38 38 38 38
48 49 50 50 51 51 51 51 51 51 51 51 50 50 50 51 51 52 53 54 55 55 55 55 55 54 53 51 50 49 48 47 46 45 43 43 42 42 41 41 41 41 41 40 40 40 40 40 41 41 41 42 42 43 44 44 44 44 44 44 44 44 43 43 43 42 42 42 41 41 41 40 40 40 39 39 39 39 39 39 39 39 39 39 39 38
49 49 50 51 51 52 52 52 52 51 51 51 51 50 51 51 52 53 54 55 55 56 56 55 54 53 52 50 49 48 47 46 45 44 43 42 42 41 41 41 41 41 40 40 40 40 40 40 40 41 41 41 42 43 43 44 44 44 44 45 45 44 44 44 43 43 43 43 42 42 42 41 41 41 40 40 40 40 40 40 40 40 40 39 39 39
49 50 51 51 52 52 52 52 52 52 51 51 51 51 51 52 52 53 54 55 56 56 55 55 54 52 51 49 48 47 46 45 45 44 43 42 42 41 41 41 41 41 41 41 41 41 40 40 40 41 41 42 42 42 43 43 44 44 44 45 45 45 45 44 44 44 43 43 43 43 43 42 42 42 41 41 41 41 41 41 41 40 40 40 40 40
50 51 51 52 52 52 52 52 52 52 51 51 51 51 51 52 53 54 55 56 56 56 55 54 53 51 50 48 47 46 45 45 44 43 43 42 42 42 41 41 41 41 41 41 41 41 41 41 41 41 41 41 42 42 43 43 43 44 44 44 45 45 45 45 44 44 44 44 44 43 43 43 43 42 42 42 42 42 42 41 41 41 41 41 40 40
50 51 52 52 53 53 53 52 52 52 51 51 51 52 52 53 54 55 55 56 56 55 55 53 52 50 49 47 46 45 44 44 44 43 43 43 42 42 42 41 42 42 42 42 42 41 41 41 41 41 41 41 41 42 42 43 43 44 44 44 44 44 44 45 45 45 44 44 44 44 44 43 43 43 42 42 42 42 42 42 42 42 41 41 41 41
51 51 52 53 53 53 53 53 52 52 52 52 52 52 53 54 54 55 56 56 56 55 54 53 51 50 48 47 45 44 44 43 43 43 43 43 42 42 42 42 42 42 42 42 42 42 42 42 42 42 42 42 42 42 42 43 43 44 44 43 43 44 44 45 45 45 45 45 45 45 44 44 43 43 43 42 42 42 42 42 42 42 42 42 41 41
51 52 53 53 53 53 53 53 53 52 52 52 52 53 53 54 55 56 56 56 56 55 54 52 51 49 48 46 45 44 43 43 43 43 43 43 43 43 43 43 43 43 43 43 43 43 43 43 43 43 43 43 42 42 43 43 44 44 44 44 44 44 44 45 45 45 45 45 45 45 45 44 44 43 43 43 42 42 42 42 42 42 42 42 42 41
52 52 53 54 54 54 54 53 53 53 53 53 53 53 54 55 55 56 56 56 55 54 53 52 50 48 47 46 45 44 43 43 43 43 43 43 43 43 43 43 43 44 44 44 44 44 44 44 44 44 44 44 43 43 43 44 44 45 45 45 44 44 44 45 45 46 46 46 46 45 45 44 44 43 43 43 43 42 42 42 42 42 42 42 42 41
52 53 53 54 54 54 54 54 53 53 53 53 53 54 55 55 56 56 57 56 55 54 53 51 50 48 46 45 45 44 43 43 43 43 43 43 43 43 44 44 44 44 44 44 44 45 45 44 44 44 44 44 44 44 44 45 45 45 45 45 45 45 45 45 45 46 46 46 46 45 45 44 44 43 43 43 43 42 42 42 42 42 42 42 42 42
53 53 54 54 54 54 54 54 54 53 53 53 54 54 55 56 56 57 57 56 55 54 52 51 49 48 46 45 45 44 44 44 43 43 43 44 44 44 44 44 45 45 45 45 45 45 45 45 45 45 45 45 45 45 45 45 46 46 46 46 45 45 45 45 45 45 45 45 45 45 45 44 44 43 43 42 42 42 42 42 42 42 42 42 42 42
53 54 54 54 55 55 54 54 54 54 54 54 54 55 55 56 57 57 57 56 55 54 52 50 49 47 46 45 45 44 44 44 45 45 45 45 44 45 45 45 45 46 46 46 46 46 46 46 46 46 45 45 45 45 46 46 46 46 46 46 45 45 45 45 45 45 45 45 44 44 44 44 43 43 42 42 42 41 41 41 41 41 42 42 42 42
53 54 54 55 55 55 55 54 54 54 54 54 54 55 56 56 57 57 57 56 55 53 52 50 48 47 46 45 45 45 45 45 46 46 46 46 46 45 45 45 45 46 46 46 46 46 46 46 46 46 46 45 45 45 46 46 46 46 45 45 45 45 45 45 45 45 44 44 44 44 43 43 43 42 42 41 41 40 40 40 40 41 41 41 42 41
54 54 55 55 55 55 55 55 55 54 54 54 55 55 56 56 57 57 57 56 54 53 51 50 48 47 46 45 45 45 45 46 46 47 47 47 47 47 46 46 46 46 46 46 47 47 47 47 46 46 46 45 45 46 46 46 45 45 45 45 45 45 45 44 44 44 44 43 43 43 43 42 42 42 41 40 40 39 39 39 40 40 41 41 41 41
54 55 55 56 56 56 55 55 55 55 55 55 55 56 56 56 57 57 56 55 54 52 51 49 48 47 46 46 46 46 46 46 47 47 47 48 48 48 47 47 47 47 47 47 47 47 47 47 46 46 46 46 46 46 45 45 45 45 45 45 45 45 44 44 44 44 43 43 42 42 42 42 41 41 40 39 39 38 38 38 39 39 40 40 41 41
55 56 56 56 56 56 56 55 55 55 55 55 55 56 56 57 57 57 56 55 53 52 50 48 47 46 46 46 46 46 46 47 47 47 48 48 48 48 48 48 48 48 48 48 48 47 47 47 46 46 46 46 46 46 45 45 45 45 45 45 45 44 44 44 43 43 42 42 42 41 41 41 41 40 39 39 38 37 37 37 37 38 39 40 40 40
56 56 56 57 57 56 56 56 55 55 55 55 56 56 57 57 57 57 56 55 53 51 49 48 47 46 46 46 46 46 47 47 47 47 47 48 48 48 48 48 48 48 48 48 48 48 47 46 46 45 45 45 45 45 45 45 45 44 44 44 44 44 44 43 43 42 41 41 41 40 40 40 40 39 39 38 37 37 36 36 36 37 38 39 39 40
Wind_Direction
330 330 328 326 324 323 322 322 321 321 320 321 321 321 320 320 319 317 315 314 312 312 310 308 305 302 298 294 289 283 278 271 266 262 259 258 257 257 257 258 259 261 263 265 267 269 270 272 273 273 273 271 270 268 268 268 268 269 270 270 271 272 273 273 273 272 272 271 271 271 270 270 270 270 270 271 272 272 273 273 273 273 273 273 273 272
331 331 331 329 326 324 322 321 320 319 319 319 320 320 320 319 319 318 317 315 312 310 308 306 303 301 298 294 291 287 284 281 278 275 272 269 268 267 267 267 268 270 271 273 274 276 277 277 278 277 276 275 274 273 273 273 274 274 275 275 275 275 275 275 274 274 273 273 272 272 272 271 271 271 271 272 272 273 273 273 273 273 273 272 272 271
331 332 332 332 330 327 325 323 321 319 319 318 319 319 318 318 317 317 316 314 313 310 307 304 301 298 295 293 291 288 286 284 283 281 279 277 276 275 274 274 275 276 277 278 279 280 281 281 281 281 280 279 277 277 276 276 277 277 277 277 276 276 276 275 274 274 273 273 272 272 272 272 272 272 272 272 273 273 274 274 274 274 273 272 272 271
331 332 333 333 332 331 329 327 324 322 321 320 320 319 319 318 317 316 315 314 312 310 308 305 301 298 294 291 288 286 284 282 280 279 278 277 277 276 276 277 277 278 279 280 280 280 281 281 281 280 280 279 279 278 278 278 278 278 277 277 277 276 276 275 275 274 274 273 273 272 272 272 272 272 272 272 273 273 273 273 274 274 273 273 272 271
330 331 332 333 333 333 331 330 328 327 325 324 323 322 321 320 319 318 317 315 313 311 308 306 303 300 296 292 289 286 283 281 279 278 277 277 277 277 277 278 279 279 280 280 279 279 278 278 278 277 277 277 277 277 277 277 277 277 277 277 277 276 276 276 275 275 274 274 273 273 272 272 272 272 272 272 272 272 272 272 273 272 272 272 271 270
329 330 331 331 332 332 331 331 330 329 328 327 327 326 325 324 323 321 320 318 315 313 310 307 304 301 299 296 293 290 288 285 283 281 280 279 279 279 279 280 280 280 280 280 279 278 277 276 275 275 275 275 275 275 275 275 275 275 275 275 275 275 275 275 275 275 275 274 274 274 273 273 273 272 272 272 272 272 272 271 271 271 271 271 270 270
328 329 329 329 329 329 329 329 328 328 328 328 327 327 326 325 325 323 322 320 318 315 312 309 306 303 300 298 296 294 292 290 288 286 285 284 283 283 282 282 282 282 282 282 281 280 279 277 276 275 274 274 273 273 273 273 273 273 273 273 274 274 274 275 275 275 275 275 274 274 274 273 273 273 272 272 272 271 271 271 271 270 270 270 269 269
327 327 327 327 326 326 326 326 326 326 326 326 326 326 325 325 324 323 322 321 319 317 314 312 309 306 303 300 298 296 294 292 290 289 288 287 286 286 286 285 285 285 284 284 283 282 281 280 279 277 276 275 274 273 272 272 272 272 272 272 272 273 273 274 274 274 274 274 274 274 274 274 273 273 273 273 272 272 271 271 271 270 270 270 269 269
325 325 324 324 324 323 323 323 323 323 323 323 324 323 323 322 321 320 319 318 317 315 314 312 310 308 305 303 300 298 295 293 291 290 289 288 288 287 287 286 286 286 286 285 285 284 283 282 281 280 279 277 276 275 274 273 272 272 272 272 272 272 272 273 273 273 274 274 274 274 274 274 274 274 274 273 273 273 272 272 271 271 271 270 270 269
322 322 322 321 321 321 321 321 321 321 321 321 321 321 320 320 319 318 317 316 314 313 312 310 309 307 306 304 302 300 298 295 293 291 290 289 288 287 287 286 286 286 286 285 285 285 284 284 283 282 282 281 279 278 277 276 275 274 274 273 273 273 273 273 274 274 274 274 274 275 275 275 275 274 274 274 274 273 273 273 272 272 271 271 270 270
320 320 320 320 320 319 319 319 319 319 319 318 318 317 317 316 316 315 314 313 312 310 309 308 307 306 304 303 301 300 298 296 295 293 291 289 288 288 287 287 286 286 286 285 285 285 285 285 284 284 283 283 282 281 280 280 279 278 277 276 276 276 276 276 276 276 276 276 276 276 276 276 275 275 275 275 274 274 273 273 273 272 272 271 271 270
319 319 318 318 318 318 318 318 317 317 317 316 316 315 314 313 312 312 311 310 309 308 307 305 304 303 302 302 300 299 298 297 295 294 292 291 290 289 289 288 287 287 286 286 286 285 285 285 284 284 284 284 283 283 282 282 281 280 280 280 279 279 279 278 278 278 278 278 277 277 277 277 276 276 275 275 275 274 274 273 273 272 272 271 271 270
317 318 318 318 318 317 317 317 317 316 316 315 314 313 313 311 310 309 309 308 306 306 304 304 303 302 301 300 300 299 298 297 296 295 293 293 292 292 291 290 289 288 287 287 286 286 285 285 285 284 284 284 283 283 283 282 282 282 282 282 281 281 281 280 280 280 279 279 279 278 278 277 277 276 276 275 275 274 274 273 273 272 272 271 271 271
317 317 317 317 317 317 317 317 316 316 315 315 314 313 312 311 309 308 307 306 305 304 303 302 302 301 300 299 299 299 298 297 296 295 295 294 293 293 292 291 290 289 289 288 287 287 286 286 285 285 284 284 284 284 283 283 283 283 282 282 282 282 282 281 281 280 280 279 279 278 278 277 277 277 276 276 275 275 274 274 273 273 272 272 271 271
316 316 317 317 317 317 317 316 316 316 315 314 313 312 311 310 309 308 307 306 305 304 303 302 301 300 299 299 298 298 298 297 296 296 295 294 294 293 293 292 291 290 290 289 288 287 287 286 286 286 285 285 284 284 284 284 283 283 283 283 282 282 281 281 281 280 280 279 279 278 278 277 277 277 276 276 275 275 274 274 274 273 273 272 272 272
316 316 316 317 317 317 317 316 316 315 315 314 313 312 311 310 309 308 307 306 305 304 303 303 302 301 300 299 298 298 298 297 296 295 295 294 294 293 292 292 291 291 290 290 289 288 288 287 287 286 286 286 285 285 284 284 284 283 283 283 282 282 281 281 281 280 280 279 279 278 278 278 277 277 276 276 276 275 275 275 274 274 274 273 273 272
316 316 317 317 317 317 317 317 316 315 315 314 313 312 311 310 309 308 307 306 305 304 303 302 302 301 300 299 298 297 297 297 296 295 295 294 294 293 292 292 292 291 291 290 289 289 289 288 288 287 287 286 286 285 285 284 284 284 283 283 282 282 282 281 281 280 280 279 279 279 278 278 278 277 277 277 276 276 276 275 275 275 274 274 273 273
317 317 318 318 318 318 317 317 316 316 315 314 314 312 311 310 309 308 307 306 305 304 303 302 301 301 300 299 298 297 296 296 296 295 295 295 294 293 292 292 292 291 291 291 290 290 289 289 288 288 287 287 286 286 285 285 284 284 283 283 283 282 282 281 281 280 280 280 279 279 279 278 278 278 278 277 277 277 276 276 276 275 275 274 274 273
317 318 318 318 318 318 318 317 317 316 315 315 314 313 312 311 310 309 308 307 306 305 304 303 302 301 300 299 298 297 296 296 296 295 295 295 294 293 293 293 292 292 292 291 291 290 290 289 289 288 288 287 286 286 285 285 284 284 284 283 283 282 282 282 281 281 281 280 280 280 279 279 279 278 278 278 278 277 277 277 276 276 275 275 274 274
318 318 319 319 319 318 318 317 317 316 315 315 314 313 312 311 310 309 308 307 306 305 304 303 302 302 301 300 299 298 297 297 296 296 295 294 294 293 293 293 292 292 292 291 291 291 290 290 289 289 288 287 287 286 286 285 285 284 284 284 283 283 282 282 282 281 281 281 280 280 280 280 279 279 279 279 279 278 278 278 277 277 276 275 275 274
318 319 319 319 319 318 318 317 317 316 315 314 314 313 312 312 311 310 309 308 307 306 305 305 304 303 302 301 300 300 299 298 297 296 296 295 294 294 293 293 292 292 292 291 291 291 290 290 289 289 288 288 287 287 286 286 285 285 285 284 284 284 283 283 282 282 282 281 281 281 281 281 281 280 280 280 280 280 279 279 278 278 277 276 276 275
319 319 319 319 318 318 318 317 316 316 315 315 314 314 313 312 311 311 310 309 308 307 307 306 305 304 303 303 302 301 300 299 298 298 297 296 295 295 294 293 293 292 292 291 291 290 290 290 289 289 288 288 288 287 287 287 286 286 286 285 285 285 284 284 283 283 283 282 282 282 282 282 282 282 282 281 281 281 281 280 280 279 278 278 277 276
319 319 319 318 318 318 317 317 316 316 315 315 314 314 313 312 312 311 310 310 309 308 307 306 306 305 304 304 303 302 301 300 300 299 298 297 296 295 295 294 293 292 292 291 291 290 290 289 289 288 288 288 288 288 288 287 287 287 287 286 286 285 285 284 284 284 284 283 283 283 283 283 283 283 282 282 282 282 282 281 281 281 280 279 278 277
318 318 318 318 318 317 317 317 316 316 315 315 314 314 313 312 312 311 310 310 309 308 308 307 306 306 305 304 304 303 302 301 301 300 299 298 297 296 295 294 293 293 292 291 290 290 289 289 289 288 288 288 288 288 288 288 287 287 287 287 286 286 285 285 285 284 284 284 283 283 283 283 283 283 283 283 283 284 284 284 283 283 282 282 281 280
318 318 318 318 318 318 317 317 317 316 316 315 315 314 313 313 312 311 311 310 309 309 308 308 307 307 306 305 305 304 303 302 302 301 300 299 298 296 295 295 294 293 292 291 291 290 290 289 289 289 288 288 288 288 288 288 287 287 287 286 286 286 285 285 284 284 284 283 283 282 282 282 283 283 284 284 285 286 286 287 287 286 286 285 284 282
318 318 318 318 318 318 318 317 317 317 316 316 315 314 314 313 312 312 311 311 310 309 309 308 308 307 306 306 305 305 304 303 302 301 300 299 298 297 296 295 294 293 292 292 291 290 290 289 289 289 289 288 288 288 288 287 287 286 286 286 285 285 284 284 283 283 282 282 281 281 281 282 282 283 284 285 287 288 289 290 290 290 289 288 286 284
318 318 319 319 319 319 318 318 318 317 317 316 316 315 314 314 313 312 312 311 310 310 309 309 308 308 307 307 306 305 305 304 303 302 301 299 298 297 296 295 294 293 293 292 291 291 290 290 290 289 289 288 288 288 287 287 286 286 285 284 284 283 283 282 282 281 281 280 280 280 280 281 282 283 285 286 288 289 291 292 292 292 292 290 289 286
318 319 319 319 319 319 319 319 318 318 317 317 316 315 315 314 313 313 312 312 311 310 310 309 309 308 308 307 307 306 305 304 303 302 301 300 298 297 296 295 295 294 293 292 292 291 291 290 290 289 289 288 288 287 286 286 285 284 284 283 283 282 281 281 280 280 279 279 279 279 280 281 282 284 285 287 288 290 291 292 293 294 294 293 291 288
319 319 320 320 320 320 320 319 319 318 318 317 317 316 315 314 314 313 312 312 312 311 310 310 310 309 309 308 307 306 306 305 304 303 301 300 298 297 297 296 295 294 293 293 292 292 291 290 290 289 288 288 287 286 286 285 284 284 283 282 282 281 280 280 279 279 278 278 279 280 281 282 283 285 286 287 289 290 291 292 294 294 295 294 293 290
319 320 320 320 320 320 320 320 319 319 318 318 317 316 316 315 314 314 313 313 312 312 311 311 310 310 309 308 308 307 306 305 304 303 301 300 298 297 297 296 295 294 294 293 292 292 291 290 289 289 288 287 286 286 285 285 284 283 283 282 281 281 280 279 279 279 279 279 279 280 281 283 284 285 286 288 289 290 291 292 293 295 295 295 294 292
320 320 320 321 321 321 320 320 320 319 319 318 318 317 316 315 315 314 314 313 313 313 312 312 311 311 310 309 308 307 306 305 304 303 301 300 298 297 297 296 295 294 294 292 292 291 290 290 289 288 287 287 286 286 285 285 284 283 283 282 281 281 280 280 279 279 279 279 280 281 282 283 284 285 286 287 288 290 291 292 293 294 295 296 295 294
320 320 321 321 321 321 321 320 320 319 319 318 318 317 317 316 315 315 314 314 314 313 313 312 312 311 310 309 308 307 306 305 304 303 301 299 298 297 297 295 295 294 293 292 291 290 290 289 289 288 287 287 286 285 285 284 284 283 283 282 281 281 280 280 280 279 280 280 280 281 282 283 284 285 286 287 288 289 290 291 293 294 295 296 296 295
320 321 321 321 321 321 321 321 320 320 319 319 318 317 317 316 316 315 315 315 314 314 314 313 312 311 310 309 308 307 306 305 304 303 301 299 298 297 296 295 294 293 292 291 290 289 289 289 288 288 287 286 286 285 284 284 283 283 282 281 281 281 280 280 280 280 280 280 281 281 282 283 284 285 285 286 287 289 290 291 292 293 294 295 296 296
321 321 322 322 322 322 322 321 321 320 320 319 318 318 317 317 316 316 316 315 315 315 314 313 313 312 311 309 308 307 306 305 304 303 301 299 297 296 295 294 293 292 291 290 289 289 288 287 287 287 286 286 285 285 284 283 283 282 282 281 281 281 281 281 281 281 281 281 282 282 283 283 284 284 285 286 287 288 290 291 292 293 294 295 296 296
321 322 322 322 322 322 322 322 321 321 320 319 319 318 317 317 317 316 316 316 316 315 315 314 313 312 311 309 308 307 306 305 304 302 301 299 297 296 294 293 292 291 290 289 288 287 287 286 285 285 285 285 284 284 284 283 283 283 282 282 282 282 282 282 282 282 282 283 283 283 284 284 284 285 285 286 287 288 289 291 292 293 294 295 295 296
321 322 322 323 323 323 323 322 322 321 320 320 319 318 318 317 317 317 317 317 316 316 315 314 313 312 311 309 308 307 306 305 304 302 300 299 297 295 294 292 291 290 289 288 287 286 285 285 284 283 283 283 283 283 283 283 283 283 283 283 283 283 283 283 283 283 284 284 284 285 285 285 286 286 286 287 287 288 290 291 292 293 293 294 295 296
322 322 323 323 323 323 323 323 322 321 321 320 319 318 318 318 318 318 317 317 317 316 316 315 314 312 311 310 308 307 306 305 303 302 300 299 297 295 293 292 291 289 288 287 286 285 284 284 283 283 282 281 282 282 282 283 283 283 283 283 283 283 283 284 284 284 285 285 285 286 286 286 287 287 287 288 288 289 290 291 291 292 293 294 295 295
322 323 323 324 324 324 323 323 322 322 321 320 319 319 318 318 318 318 318 318 317 317 316 315 314 312 311 310 308 307 306 304 303 302 300 299 297 295 293 291 290 288 287 286 285 284 283 282 282 282 281 281 281 281 281 282 282 282 283 283 283 284 284 284 285 285 285 286 286 286 287 287 288 288 288 289 289 289 290 291 291 292 293 294 294 295
322 323 323 324 324 324 324 323 323 322 321 320 319 319 319 319 319 319 319 318 318 317 316 315 314 312 311 309 308 307 306 304 303 302 300 299 297 295 293 291 289 288 286 285 284 283 282 281 281 280 280 280 280 280 280 281 281 281 282 283 283 284 284 285 285 285 286 286 286 287 287 288 288 289 289 289 289 290 290 291 291 292 293 293 294 294
322 323 324 324 324 324 324 323 323 322 321 320 320 319 319 319 319 319 319 319 318 317 316 315 314 312 311 309 308 307 306 304 303 302 300 299 297 295 292 290 289 287 286 284 283 282 281 280 280 279 279 279 279 279 279 280 280 281 281 282 283 284 285 285 285 286 286 286 286 287 287 288 288 289 289 289 290 290 290 291 291 292 292 293 294 294
322 323 324 324 324 325 324 324 323 322 321 320 320 320 320 320 320 320 320 319 319 318 317 315 314 312 311 310 308 307 306 305 303 302 300 299 297 295 292 290 288 287 285 284 283 281 280 280 279 279 278 278 278 278 278 279 279 280 280 281 282 283 284 285 285 286 286 286 286 287 287 287 288 288 289 289 289 289 290 290 291 291 292 292 293 293
322 323 324 324 324 325 324 324 323 322 321 321 320 320 320 320 320 320 320 320 319 318 317 315 314 312 311 310 309 308 307 305 304 302 301 299 297 295 292 290 288 286 285 283 282 281 280 279 279 278 278 277 277 277 277 277 278 279 279 280 281 282 283 284 284 285 285 286 286 286 286 287 287 288 288 288 289 289 289 290 290 291 291 292 292 292
322 323 324 324 325 325 324 324 323 322 322 321 321 320 321 321 321 321 321 320 320 318 317 315 314 312 311 310 309 309 308 306 305 303 301 299 297 295 292 290 288 286 284 283 282 281 280 279 278 278 277 277 277 276 277 277 277 278 278 279 280 281 281 282 283 283 284 285 285 285 286 286 287 287 287 288 288 288 289 289 289 290 290 290 291 291
322 323 324 324 325 325 324 324 323 323 322 321 321 321 321 321 322 322 321 321 320 319 317 316 314 313 311 310 309 309 308 308 306 304 302 300 298 295 293 290 288 286 284 283 282 281 280 279 279 278 277 277 277 276 276 276 277 277 278 279 279 280 280 281 281 282 283 283 284 284 285 285 286 286 286 287 287 287 288 288 288 289 289 289 289 290
322 323 324 324 325 325 324 324 323 323 322 321 321 321 321 322 322 322 322 321 320 319 318 316 314 313 312 311 310 309 309 308 308 306 304 302 299 297 294 291 289 287 285 283 282 281 280 279 279 278 278 277 277 277 277 277 277 277 278 278 279 279 279 279 280 280 281 282 283 283 284 284 285 285 285 285 286 286 287 287 287 288 288 288 288 289
322 323 324 324 325 325 324 324 323 323 322 322 321 322 322 322 323 323 322 322 321 319 318 316 315 313 312 311 310 310 309 308 308 307 306 304 302 299 296 293 290 288 286 284 283 281 280 279 279 279 278 278 278 277 277 277 277 278 278 278 279 279 279 279 279 279 280 280 281 282 282 283 283 283 284 284 284 285 285 286 286 286 287 287 287 288
323 323 324 324 325 325 324 324 323 323 322 322 321 322 322 323 323 323 323 322 321 319 318 316 315 313 313 312 311 310 309 309 308 308 307 306 305 302 299 296 293 290 288 285 284 282 281 280 279 279 279 279 278 278 278 278 278 278 278 278 278 279 279 279 279 279 279 280 280 280 281 281 281 282 282 282 283 283 284 284 284 285 285 286 287 288
323 323 324 324 325 325 324 324 323 323 322 322 322 322 322 323 323 323 323 322 321 319 318 316 315 314 313 312 312 311 310 309 309 308 308 307 306 304 302 299 296 293 290 287 285 283 282 281 280 280 280 280 279 279 279 279 279 279 279 279 279 278 278 278 279 279 279 279 279 279 280 280 280 280 280 281 281 281 282 283 283 284 285 285 286 287
323 324 324 324 325 325 324 324 323 323 322 322 322 322 323 323 324 324 323 322 321 319 318 316 315 314 313 313 313 312 312 311 310 309 308 308 307 306 304 301 298 295 292 289 287 285 284 283 282 281 281 281 281 280 280 280 280 280 279 279 279 279 278 278 278 279 279 279 279 279 279 279 279 279 279 279 280 280 281 282 282 283 284 285 286 287
323 324 324 325 325 324 324 324 323 322 322 322 322 322 323 324 324 324 324 323 321 319 317 316 315 314 314 314 314 313 313 312 311 310 309 309 308 306 304 302 300 297 294 291 289 287 286 284 284 283 283 282 282 281 281 281 280 280 280 280 279 279 279 278 278 279 279 279 279 279 278 278 278 278 278 279 279 279 280 281 282 283 284 285 286 287
323 324 324 325 325 324 324 324 323 322 322 322 322 323 323 324 324 324 324 323 321 319 317 316 315 314 314 314 314 314 314 313 312 311 310 309 308 307 305 303 300 297 294 292 290 288 287 286 286 285 285 284 283 282 282 282 281 281 280 280 280 279 279 279 279 279 279 278 278 278 278 278 278 278 278 278 278 279 279 280 281 282 283 284 285 286
Height
5650 5648 5646 5644 5642 5640 5638 5636 5635 5633 5632 5631 5630 5629 5628 5627 5626 5626 5625 5625 5625 5625 5624 5624 5624 5624 5624 5624 5624 5625 5626 5626 5627 5627 5627 5627 5628 5628 5628 5628 5628 5628 5629 5629 5629 5629 5629 5629 5629 5629 5629 5629 5629 5628 5628 5628 5628 5628 5628 5628 5629 5629 5629 5629 5629 5629 5629 5630 5630 5630 5630 5630 5630 5630 5630 5630 5630 5631 5631 5631 5631 5632 5632 5632 5633 5633
5649 5647 5645 5643 5641 5639 5637 5636 5634 5633 5631 5630 5629 5628 5627 5626 5625 5624 5624 5624 5623 5623 5623 5623 5623 5623 5623 5624 5624 5624 5625 5625 5625 5625 5625 5625 5625 5625 5625 5625 5625 5625 5625 5625 5625 5625 5625 5625 5625 5625 5625 5625 5625 5625 5624 5624 5624 5624 5624 5624 5624 5624 5625 5625 5625 5625 5624 5624 5624 5624 5624 5624 5624 5624 5624 5624 5624 5625 5625 5625 5625 5626 5626 5626 5627 5627
5648 5646 5644 5642 5640 5638 5636 5635 5633 5632 5630 5629 5628 5627 5626 5625 5624 5623 5623 5622 5622 5622 5622 5622 5622 5622 5622 5623 5623 5623 5623 5623 5623 5623 5623 5623 5623 5622 5622 5622 5622 5622 5622 5622 5622 5622 5621 5621 5621 5621 5621 5621 5621 5620 5620 5620 5620 5620 5620 5620 5620 5620 5620 5619 5619 5619 5619 5619 5619 5618 5618 5618 5618 5618 5618 5618 5618 5618 5619 5619 5619 5619 5620 5620 5620 5621
5647 5645 5643 5640 5638 5637 5635 5633 5632 5631 5629 5628 5627 5626 5625 5624 5623 5622 5622 5621 5620 5620 5620 5620 5620 5620 5620 5620 5621 5621 5621 5621 5621 5621 5621 5620 5620 5620 5620 5619 5619 5619 5619 5618 5618 5618 5618 5618 5617 5617 5617 5617 5617 5616 5616 5616 5615 5615 5615 5615 5614 5614 5614 5614 5614 5614 5613 5613 5613 5613 5613 5613 5613 5613 5613 5613 5613 5613 5613 5613 5613 5613 5613 5614 5614 5614
5646 5643 5642 5639 5638 5636 5634 5633 5631 5630 5629 5628 5626 5625 5624 5623 5622 5621 5620 5619 5619 5618 5618 5618 5618 5618 5618 5618 5618 5618 5618 5618 5618 5618 5618 5618 5617 5617 5617 5616 5616 5615 5615 5615 5615 5614 5614 5614 5614 5613 5613 5613 5612 5612 5612 5611 5611 5611 5610 5610 5609 5609 5609 5608 5608 5608 5608 5607 5607 5607 5607 5607 5607 5607 5607 5607 5607 5607 5608 5608 5608 5608 5608 5608 5608 5608
5645 5643 5640 5639 5637 5635 5633 5632 5631 5629 5628 5627 5625 5624 5623 5622 5621 5620 5619 5618 5618 5617 5617 5616 5616 5616 5615 5615 5615 5615 5615 5615 5615 5615 5614 5614 5613 5613 5613 5612 5612 5611 5611 5611 5610 5610 5610 5610 5610 5609 5609 5608 5608 5608 5607 5607 5606 5606 5605 5605 5604 5604 5603 5603 5603 5602 5602 5602 5601 5601 5601 5601 5601 5601 5602 5602 5602 5602 5602 5602 5602 5602 5603 5603 5603 5603
5643 5642 5640 5638 5636 5635 5633 5632 5630 5628 5627 5626 5625 5623 5622 5621 5620 5619 5618 5617 5616 5616 5615 5614 5614 5613 5613 5613 5613 5612 5612 5612 5611 5611 5610 5610 5609 5609 5608 5608 5607 5607 5607 5606 5606 5606 5605 5605 5605 5605 5604 5604 5604 5603 5603 5602 5602 5601 5600 5600 5599 5599 5598 5598 5597 5597 5597 5596 5596 5596 5596 5596 5596 5596 5596 5596 5596 5596 5597 5597 5597 5597 5597 5597 5597 5597
5642 5641 5639 5638 5636 5634 5633 5631 5629 5628 5626 5625 5624 5623 5621 5620 5619 5618 5617 5616 5615 5614 5613 5613 5612 5612 5611 5611 5610 5610 5609 5608 5608 5607 5607 5606 5605 5605 5604 5603 5603 5603 5602 5602 5602 5601 5601 5601 5600 5600 5600 5599 5599 5598 5598 5597 5597 5596 5596 5595 5595 5594 5594 5593 5593 5592 5592 5592 5591 5591 5591 5591 5591 5591 5591 5591 5591 5591 5591 5591 5591 5591 5591 5591 5591 5591
5641 5640 5638 5637 5635 5633 5632 5630 5628 5627 5625 5624 5623 5621 5620 5619 5618 5617 5616 5615 5614 5613 5612 5611 5611 5610 5609 5609 5608 5608 5607 5606 5605 5604 5604 5603 5602 5601 5601 5600 5599 5599 5598 5598 5598 5597 5597 5597 5596 5596 5595 5595 5594 5594 5593 5593 5593 5592 5592 5591 5591 5590 5589 5589 5588 5588 5588 5587 5587 5586 5586 5586 5586 5586 5585 5585 5585 5585 5585 5585 5586 5586 5586 5586 5586 5586
5640 5639 5637 5636 5634 5633 5631 5629 5627 5625 5624 5622 5621 5620 5618 5618 5617 5615 5614 5614 5613 5611 5610 5610 5609 5608 5608 5607 5606 5605 5605 5604 5603 5602 5601 5600 5600 5599 5598 5597 5597 5596 5595 5595 5594 5594 5593 5593 5592 5591 5591 5590 5590 5590 5589 5589 5588 5588 5587 5587 5586 5586 5585 5584 5584 5583 5583 5582 5582 5581 5581 5581 5580 5580 5580 5580 5580 5580 5580 5580 5580 5580 5580 5580 5580 5580
5639 5638 5636 5634 5633 5631 5629 5628 5626 5624 5623 5621 5620 5618 5617 5616 5615 5614 5613 5612 5611 5610 5609 5608 5607 5606 5605 5605 5604 5603 5602 5601 5600 5599 5599 5598 5597 5596 5596 5595 5594 5593 5592 5592 5591 5590 5589 5589 5588 5587 5587 5586 5586 5585 5584 5584 5583 5583 5582 5582 5581 5581 5580 5579 5579 5578 5578 5577 5577 5576 5576 5575 5575 5575 5575 5575 5575 5575 5575 5575 5575 5575 5575 5575 5575 5575
5637 5636 5634 5633 5631 5629 5628 5626 5625 5623 5622 5620 5619 5618 5616 5615 5613 5612 5611 5610 5609 5608 5607 5606 5605 5604 5603 5602 5601 5600 5599 5598 5597 5596 5595 5594 5594 5593 5592 5591 5590 5589 5589 5588 5587 5587 5586 5585 5584 5583 5583 5582 5581 5580 5580 5579 5578 5578 5577 5576 5576 5575 5574 5574 5573 5573 5572 5571 5571 5571 5570 5570 5570 5570 5569 5569 5569 5569 5569 5569 5569 5569 5569 5569 5569 5569
5635 5634 5632 5631 5629 5628 5626 5624 5623 5622 5620 5618 5617 5616 5614 5613 5612 5611 5609 5608 5608 5606 5605 5604 5603 5602 5600 5599 5598 5597 5596 5595 5594 5593 5591 5591 5590 5589 5588 5587 5586 5585 5585 5584 5583 5582 5582 5581 5580 5579 5578 5578 5577 5576 5575 5574 5573 5573 5572 5571 5570 5569 5569 5568 5568 5567 5567 5566 5566 5565 5565 5565 5565 5564 5564 5564 5564 5564 5564 5564 5564 5564 5564 5563 5563 5563
5633 5632 5630 5628 5627 5625 5624 5622 5621 5619 5618 5616 5615 5613 5612 5611 5610 5608 5607 5606 5605 5604 5602 5601 5600 5599 5598 5596 5595 5594 5593 5591 5590 5589 5588 5587 5586 5586 5584 5583 5582 5581 5581 5580 5579 5578 5577 5576 5576 5575 5574 5573 5572 5571 5570 5569 5568 5568 5567 5566 5565 5564 5564 5563 5563 5562 5562 5561 5561 5561 5560 5560 5560 5559 5559 5559 5559 5559 5558 5558 5558 5558 5558 5558 5558 5557
5631 5630 5628 5626 5625 5623 5622 5620 5618 5617 5616 5614 5613 5611 5610 5608 5607 5606 5605 5603 5602 5601 5599 5598 5597 5596 5594 5593 5592 5591 5589 5588 5586 5585 5584 5583 5583 5582 5580 5579 5578 5577 5577 5576 5574 5573 5573 5572 5571 5570 5569 5569 5568 5567 5566 5565 5564 5563 5562 5561 5561 5560 5559 5558 5558 5558 5557 5557 5556 5556 5555 5555 5555 5554 5554 5554 5554 5553 5553 5553 5553 5552 5552 5552 5551 5551
5629 5628 5626 5624 5623 5621 5620 5618 5617 5615 5613 5612 5610 5609 5608 5606 5605 5603 5602 5601 5599 5598 5597 5595 5594 5593 5591 5590 5589 5588 5586 5584 5583 5582 5581 5580 5579 5578 5577 5575 5574 5573 5573 5571 5570 5569 5568 5568 5567 5566 5565 5564 5563 5562 5561 5560 5559 5558 5558 5557 5556 5555 5554 5554 5553 5553 5552 5552 5552 5551 5551 5550 5550 5549 5549 5549 5548 5548 5548 5547 5547 5547 5546 5546 5545 5545
5627 5625 5624 5622 5620 5619 5618 5616 5614 5613 5611 5609 5608 5606 5605 5603 5602 5601 5599 5598 5596 5595 5593 5592 5591 5589 5588 5587 5586 5584 5583 5581 5579 5578 5578 5576 5575 5574 5573 5571 5570 5569 5568 5567 5566 5565 5564 5563 5562 5561 5560 5559 5558 5557 5556 5555 5554 5553 5553 5552 5551 5551 5550 5549 5549 5548 5548 5547 5547 5546 5546 5545 5545 5544 5544 5543 5543 5543 5542 5542 5541 5541 5540 5540 5539 5539
5625 5623 5621 5619 5618 5616 5615 5613 5612 5610 5608 5607 5605 5603 5602 5601 5599 5598 5596 5595 5593 5592 5590 5589 5588 5586 5584 5583 5582 5581 5580 5578 5576 5575 5574 5573 5571 5569 5568 5567 5566 5564 5563 5562 5561 5560 5559 5558 5557 5556 5555 5554 5553 5552 5551 5550 5549 5549 5548 5547 5547 5546 5545 5545 5544 5543 5543 5542 5542 5541 5541 5540 5540 5539 5539 5538 5538 5537 5537 5536 5536 5535 5534 5534 5533 5533
5623 5621 5619 5617 5615 5614 5613 5611 5609 5608 5606 5604 5603 5601 5599 5598 5596 5595 5593 5592 5590 5589 5587 5585 5584 5583 5581 5579 5578 5577 5576 5574 5572 5571 5570 5568 5567 5565 5564 5563 5561 5560 5559 5558 5557 5556 5555 5554 5553 5552 5551 5550 5549 5548 5547 5546 5545 5544 5543 5543 5542 5541 5541 5540 5539 5539 5538 5538 5537 5537 5536 5535 5535 5534 5534 5533 5533 5532 5531 5531 5530 5530 5529 5528 5528 5527
5620 5618 5617 5615 5613 5611 5610 5608 5607 5605 5603 5601 5599 5598 5597 5595 5593 5592 5590 5588 5587 5585 5584 5582 5580 5579 5578 5576 5574 5573 5571 5570 5568 5567 5566 5564 5562 5561 5559 5558 5557 5556 5554 5553 5552 5551 5550 5549 5548 5548 5546 5545 5544 5543 5542 5542 5541 5540 5539 5538 5538 5537 5536 5535 5535 5534 5533 5533 5532 5532 5531 5531 5530 5529 5529 5528 5528 5527 5526 5525 5525 5524 5523 5523 5522 5522
5618 5616 5614 5613 5611 5609 5607 5605 5603 5602 5600 5598 5597 5595 5593 5592 5590 5588 5587 5585 5583 5582 5580 5578 5577 5575 5574 5572 5570 5568 5567 5566 5564 5563 5561 5560 5558 5557 5555 5554 5553 5552 5550 5549 5548 5547 5546 5545 5544 5543 5542 5541 5539 5539 5538 5537 5536 5535 5535 5534 5533 5532 5532 5531 5530 5529 5529 5528 5528 5527 5526 5526 5525 5524 5524 5523 5522 5522 5521 5520 5519 5519 5518 5517 5517 5516
5615 5613 5612 5610 5608 5607 5605 5603 5601 5599 5597 5595 5593 5592 5590 5588 5587 5585 5583 5582 5580 5578 5576 5574 5573 5571 5570 5568 5566 5564 5563 5561 5560 5559 5557 5556 5554 5553 5551 5550 5548 5547 5546 5545 5543 5543 5541 5540 5539 5538 5537 5536 5535 5534 5533 5532 5532 5531 5530 5529 5528 5528 5527 5526 5526 5525 5524 5524 5523 5523 5522 5521 5520 5520 5519 5518 5518 5517 5516 5515 5514 5513 5513 5512 5511 5511
5613 5611 5609 5607 5605 5604 5602 5600 5598 5596 5594 5592 5591 5589 5587 5585 5583 5582 5580 5578 5576 5574 5573 5571 5569 5567 5566 5564 5562 5560 5559 5557 5556 5554 5553 5551 5550 5548 5547 5546 5544 5543 5542 5540 5539 5538 5537 5536 5535 5533 5533 5531 5530 5529 5528 5528 5527 5526 5526 5525 5524 5523 5523 5522 5521 5521 5520 5519 5519 5518 5518 5517 5516 5515 5515 5514 5513 5512 5512 5511 5510 5509 5508 5507 5506 5506
5610 5608 5607 5605 5603 5601 5599 5597 5595 5593 5591 5589 5587 5585 5583 5582 5580 5578 5576 5574 5572 5570 5568 5567 5565 5563 5562 5560 5558 5556 5554 5553 5552 5550 5549 5547 5546 5544 5543 5541 5540 5538 5537 5536 5535 5533 5532 5531 5530 5529 5528 5527 5526 5525 5524 5523 5523 5522 5521 5521 5520 5519 5518 5518 5517 5516 5516 5515 5514 5514 5513 5513 5512 5511 5511 5510 5509 5508 5507 5506 5506 5505 5504 5503 5502 5501
5608 5606 5604 5602 5600 5598 5596 5594 5592 5590 5588 5586 5584 5582 5580 5578 5576 5574 5572 5570 5568 5567 5565 5563 5562 5560 5558 5557 5555 5553 5550 5549 5548 5546 5544 5543 5541 5540 5538 5537 5535 5533 5532 5531 5530 5529 5527 5526 5525 5524 5523 5522 5521 5521 5520 5519 5518 5518 5517 5517 5516 5515 5514 5514 5513 5513 5512 5511 5511 5510 5510 5509 5508 5508 5507 5506 5505 5504 5503 5503 5502 5501 5500 5498 5498 5496
5605 5603 5602 5600 5598 5596 5593 5591 5589 5587 5585 5583 5581 5579 5577 5574 5573 5571 5569 5567 5565 5563 5562 5559 5558 5556 5554 5553 5551 5549 5547 5544 5543 5542 5540 5538 5536 5535 5533 5532 5531 5529 5527 5526 5525 5524 5523 5522 5520 5520 5519 5518 5517 5516 5516 5515 5514 5514 5513 5513 5512 5512 5511 5510 5510 5509 5508 5508 5507 5507 5506 5506 5505 5504 5503 5503 5502 5501 5500 5499 5498 5497 5496 5495 5494 5493
5603 5601 5599 5597 5595 5593 5591 5588 5586 5584 5582 5580 5578 5576 5573 5571 5569 5567 5565 5564 5562 5560 5558 5556 5554 5552 5550 5549 5547 5545 5543 5540 5538 5536 5535 5533 5531 5530 5528 5528 5526 5524 5523 5521 5520 5519 5518 5517 5516 5515 5514 5513 5513 5512 5512 5511 5511 5510 5510 5509 5508 5508 5507 5507 5506 5506 5505 5504 5504 5503 5503 5502 5502 5501 5500 5499 5498 5498 5497 5496 5495 5494 5493 5491 5490 5489
5600 5598 5596 5594 5592 5589 5587 5585 5583 5581 5579 5577 5574 5572 5570 5568 5566 5563 5561 5560 5558 5556 5554 5552 5550 5548 5546 5544 5543 5541 5539 5536 5533 5531 5530 5528 5526 5525 5524 5523 5521 5520 5518 5516 5515 5514 5514 5513 5512 5511 5510 5509 5509 5508 5508 5508 5507 5507 5506 5505 5505 5504 5504 5503 5503 5502 5502 5501 5500 5500 5499 5499 5498 5497 5497 5496 5495 5494 5493 5492 5491 5490 5489 5488 5487 5485
5597 5595 5593 5591 5588 5586 5584 5582 5579 5577 5575 5573 5571 5568 5566 5564 5562 5560 5558 5556 5554 5552 5550 5548 5546 5544 5542 5540 5538 5537 5535 5532 5529 5527 5524 5523 5521 5519 5519 5518 5516 5515 5514 5512 5511 5510 5509 5509 5508 5507 5506 5505 5505 5504 5504 5503 5503 5503 5502 5502 5501 5501 5500 5500 5499 5499 5498 5498 5497 5497 5496 5495 5494 5494 5493 5492 5492 5491 5490 5489 5488 5487 5486 5485 5483 5482
5594 5592 5589 5588 5585 5583 5581 5578 5576 5574 5572 5569 5567 5565 5563 5560 5558 5556 5554 5552 5550 5548 5546 5543 5542 5540 5538 5536 5533 5531 5530 5528 5525 5523 5520 5518 5516 5514 5514 5513 5512 5511 5510 5508 5507 5505 5504 5504 5504 5503 5502 5501 5501 5500 5500 5499 5499 5498 5498 5498 5497 5497 5497 5496 5496 5495 5495 5494 5493 5493 5492 5492 5491 5490 5490 5489 5488 5487 5486 5485 5484 5483 5482 5481 5480 5478
5591 5588 5586 5584 5582 5580 5577 5575 5573 5570 5568 5566 5563 5561 5559 5557 5554 5552 5550 5548 5546 5544 5542 5539 5537 5535 5533 5531 5528 5526 5524 5523 5521 5518 5516 5514 5512 5510 5509 5508 5507 5506 5505 5505 5503 5501 5500 5499 5499 5499 5498 5497 5496 5496 5495 5495 5495 5494 5494 5493 5493 5493 5493 5492 5492 5492 5491 5491 5490 5489 5489 5488 5488 5487 5486 5485 5484 5484 5483 5482 5481 5480 5479 5478 5476 5475
5588 5585 5583 5581 5578 5576 5574 5572 5569 5567 5564 5562 5559 5557 5555 5553 5551 5548 5546 5544 5542 5540 5538 5535 5533 5530 5528 5526 5524 5522 5520 5518 5516 5514 5512 5510 5508 5506 5505 5504 5503 5502 5501 5501 5500 5498 5496 5495 5494 5494 5494 5493 5492 5492 5491 5491 5491 5490 5490 5489 5489 5488 5488 5488 5488 5488 5487 5487 5486 5486 5485 5485 5484 5483 5483 5482 5481 5480 5479 5478 5477 5476 5475 5474 5473 5472
5584 5582 5580 5578 5575 5573 5571 5568 5566 5563 5561 5558 5556 5553 5551 5549 5547 5544 5542 5540 5538 5535 5533 5531 5528 5526 5523 5521 5519 5517 5515 5513 5512 5510 5508 5506 5504 5503 5501 5501 5500 5498 5497 5497 5496 5495 5493 5492 5491 5490 5489 5489 5488 5488 5487 5487 5487 5486 5486 5485 5485 5484 5484 5484 5484 5483 5483 5483 5483 5482 5482 5481 5480 5480 5479 5478 5478 5477 5475 5474 5473 5472 5471 5470 5469 5468
5581 5579 5577 5574 5572 5569 5567 5565 5562 5560 5558 5555 5553 5550 5548 5545 5543 5541 5538 5536 5533 5531 5529 5526 5524 5521 5518 5516 5514 5512 5511 5509 5508 5506 5504 5502 5501 5499 5498 5497 5496 5495 5494 5493 5492 5491 5490 5489 5488 5487 5485 5484 5484 5483 5483 5483 5482 5482 5481 5481 5480 5480 5480 5480 5480 5479 5479 5478 5478 5478 5477 5477 5477 5476 5475 5474 5473 5473 5472 5470 5469 5468 5467 5466 5465 5464
5578 5576 5573 5571 5568 5566 5564 5561 5559 5556 5554 5551 5549 5546 5544 5541 5539 5537 5534 5532 5529 5527 5524 5522 5519 5517 5514 5512 5509 5508 5506 5504 5503 5502 5500 5498 5497 5495 5494 5493 5492 5491 5490 5489 5488 5488 5487 5486 5485 5484 5483 5481 5480 5479 5478 5478 5478 5477 5477 5476 5476 5476 5475 5475 5475 5475 5474 5474 5473 5473 5473 5473 5472 5472 5471 5470 5469 5468 5468 5467 5465 5464 5463 5462 5461 5460
5575 5573 5570 5568 5565 5563 5560 5558 5555 5553 5550 5548 5545 5543 5540 5538 5535 5533 5530 5528 5525 5522 5520 5517 5515 5512 5510 5508 5506 5503 5502 5500 5499 5498 5496 5494 5493 5492 5491 5489 5488 5488 5487 5486 5485 5484 5483 5482 5482 5481 5480 5478 5477 5476 5475 5474 5473 5473 5472 5472 5472 5471 5471 5471 5471 5470 5470 5469 5469 5468 5468 5468 5468 5467 5467 5466 5465 5464 5463 5462 5461 5460 5459 5458 5457 5456
5572 5570 5568 5565 5562 5560 5557 5554 5552 5549 5547 5544 5541 5539 5537 5534 5531 5528 5526 5523 5521 5518 5515 5513 5510 5508 5506 5503 5501 5499 5498 5496 5494 5493 5492 5490 5489 5488 5487 5486 5484 5484 5483 5482 5481 5481 5480 5479 5478 5477 5476 5475 5474 5473 5471 5470 5469 5469 5468 5468 5467 5467 5466 5466 5466 5466 5465 5465 5464 5464 5464 5463 5463 5463 5462 5462 5461 5460 5459 5458 5457 5456 5455 5454 5453 5452
5569 5567 5564 5562 5559 5556 5553 5551 5548 5546 5543 5540 5538 5535 5533 5530 5528 5525 5522 5519 5516 5514 5511 5508 5506 5503 5501 5499 5497 5495 5494 5492 5491 5489 5488 5487 5485 5484 5483 5482 5481 5480 5479 5479 5478 5477 5476 5475 5474 5473 5473 5472 5471 5470 5468 5467 5466 5465 5464 5463 5463 5462 5462 5462 5461 5461 5461 5460 5460 5460 5459 5459 5458 5458 5458 5457 5456 5455 5454 5453 5453 5452 5451 5450 5449 5448
5566 5563 5561 5558 5556 5553 5550 5548 5545 5542 5539 5537 5534 5532 5529 5527 5524 5521 5518 5516 5513 5510 5507 5504 5502 5499 5498 5495 5493 5492 5490 5488 5487 5485 5484 5483 5482 5480 5479 5478 5477 5476 5475 5475 5474 5473 5473 5472 5471 5470 5469 5468 5467 5466 5465 5464 5463 5462 5460 5460 5459 5458 5458 5457 5457 5456 5456 5456 5456 5455 5455 5454 5454 5453 5453 5452 5452 5451 5450 5449 5448 5447 5446 5445 5445 5444
5563 5560 5558 5555 5552 5549 5547 5544 5541 5538 5536 5533 5531 5528 5526 5523 5520 5517 5514 5512 5509 5506 5503 5500 5498 5496 5494 5492 5490 5488 5486 5485 5483 5482 5480 5479 5478 5477 5475 5474 5473 5472 5471 5471 5470 5469 5469 5468 5467 5467 5466 5465 5464 5463 5462 5460 5459 5458 5458 5457 5456 5454 5453 5453 5452 5452 5452 5452 5451 5451 5450 5450 5450 5449 5449 5448 5447 5446 5445 5444 5443 5443 5442 5441 5440 5440
5559 5557 5554 5552 5549 5546 5543 5541 5538 5535 5533 5530 5527 5524 5522 5519 5516 5513 5510 5508 5505 5502 5499 5497 5494 5492 5489 5488 5486 5485 5483 5481 5479 5478 5476 5475 5474 5473 5471 5470 5469 5468 5467 5466 5466 5465 5465 5464 5463 5463 5462 5462 5461 5460 5458 5457 5455 5454 5454 5453 5453 5451 5450 5449 5448 5447 5447 5447 5447 5447 5446 5446 5446 5445 5445 5444 5443 5442 5441 5440 5439 5438 5438 5437 5436 5435
5556 5553 5551 5548 5545 5543 5540 5537 5534 5532 5529 5526 5524 5521 5518 5516 5513 5510 5507 5504 5501 5498 5496 5493 5490 5488 5486 5484 5482 5481 5479 5478 5476 5474 5473 5471 5470 5468 5467 5466 5465 5464 5463 5462 5462 5461 5460 5460 5459 5458 5458 5457 5457 5456 5454 5453 5452 5451 5450 5450 5449 5448 5447 5445 5444 5443 5443 5443 5442 5442 5442 5442 5442 5441 5441 5440 5439 5438 5437 5436 5435 5435 5434 5433 5432 5431
5553 5550 5547 5544 5542 5539 5536 5533 5531 5528 5525 5523 5520 5518 5515 5512 5509 5506 5503 5500 5498 5495 5492 5489 5487 5484 5482 5480 5478 5477 5475 5474 5472 5471 5469 5467 5466 5464 5463 5462 5461 5460 5459 5458 5457 5456 5456 5455 5455 5454 5453 5453 5453 5452 5450 5449 5448 5447 5446 5446 5445 5445 5444 5442 5441 5440 5439 5438 5438 5438 5438 5438 5438 5437 5437 5436 5435 5434 5433 5432 5432 5431 5430 5429 5428 5428
5549 5547 5544 5541 5538 5535 5533 5530 5527 5524 5522 5519 5517 5514 5511 5508 5505 5502 5499 5496 5493 5491 5488 5485 5483 5480 5478 5477 5475 5473 5471 5470 5468 5467 5465 5463 5462 5460 5459 5458 5457 5455 5454 5454 5453 5452 5451 5451 5450 5449 5448 5448 5448 5447 5446 5445 5444 5443 5442 5442 5441 5441 5440 5439 5438 5437 5436 5435 5434 5434 5434 5434 5433 5433 5433 5432 5431 5430 5429 5428 5428 5427 5426 5425 5424 5423
5546 5543 5540 5538 5535 5532 5529 5527 5524 5521 5518 5516 5513 5510 5507 5504 5502 5498 5496 5493 5489 5487 5484 5482 5479 5477 5474 5473 5471 5469 5467 5466 5464 5463 5461 5460 5458 5457 5455 5453 5452 5451 5450 5449 5448 5448 5447 5446 5445 5445 5444 5444 5443 5443 5442 5441 5440 5439 5438 5438 5437 5437 5436 5435 5434 5433 5433 5432 5431 5430 5430 5430 5429 5429 5429 5428 5427 5427 5426 5425 5424 5423 5422 5421 5420 5420
5543 5540 5537 5534 5532 5529 5526 5523 5520 5518 5515 5512 5509 5507 5504 5501 5498 5495 5492 5489 5486 5483 5480 5478 5476 5473 5471 5469 5467 5465 5463 5461 5460 5458 5457 5456 5454 5453 5451 5449 5448 5447 5446 5444 5444 5443 5443 5442 5441 5440 5439 5439 5438 5438 5437 5436 5435 5435 5434 5433 5433 5432 5431 5430 5430 5429 5429 5428 5428 5427 5426 5426 5426 5425 5425 5425 5424 5423 5422 5421 5420 5419 5418 5417 5416 5416
5540 5537 5534 5531 5528 5526 5523 5520 5517 5514 5512 5509 5506 5503 5500 5498 5494 5491 5488 5485 5483 5480 5477 5474 5472 5470 5467 5465 5463 5461 5459 5457 5455 5454 5453 5451 5450 5448 5447 5445 5443 5442 5441 5440 5439 5438 5437 5437 5436 5436 5435 5435 5434 5433 5432 5432 5431 5430 5430 5429 5429 5428 5427 5426 5426 5425 5425 5424 5424 5423 5423 5422 5422 5422 5422 5421 5421 5420 5419 5418 5417 5415 5414 5413 5412 5412
5536 5533 5531 5528 5525 5522 5519 5517 5514 5511 5508 5505 5503 5500 5497 5494 5491 5488 5485 5482 5479 5476 5473 5471 5468 5466 5464 5461 5459 5457 5455 5453 5451 5449 5448 5446 5444 5443 5442 5440 5439 5438 5436 5435 5434 5433 5432 5432 5431 5431 5431 5430 5429 5428 5428 5427 5426 5426 5425 5424 5424 5423 5423 5422 5421 5421 5420 5420 5420 5419 5419 5418 5418 5418 5418 5418 5417 5417 5416 5414 5413 5412 5411 5409 5409 5408
5533 5530 5528 5524 5522 5519 5516 5513 5510 5508 5505 5502 5499 5496 5493 5491 5488 5485 5482 5479 5476 5473 5470 5468 5465 5462 5460 5458 5456 5453 5451 5449 5447 5445 5443 5441 5439 5438 5436 5435 5433 5432 5431 5430 5429 5428 5427 5427 5427 5426 5425 5425 5424 5423 5423 5422 5422 5421 5420 5419 5419 5419 5418 5418 5417 5417 5416 5416 5416 5415 5415 5414 5414 5414 5414 5414 5413 5413 5413 5411 5410 5408 5407 5406 5405 5404
5530 5527 5524 5521 5518 5515 5513 5510 5507 5504 5501 5498 5496 5493 5490 5487 5484 5481 5478 5476 5473 5470 5467 5465 5462 5459 5457 5454 5452 5450 5448 5445 5443 5441 5438 5437 5435 5433 5431 5430 5428 5427 5426 5424 5424 5423 5423 5422 5422 5421 5421 5420 5419 5418 5418 5417 5417 5416 5416 5415 5414 5414 5413 5413 5413 5412 5412 5412 5411 5411 5410 5410 5409 5409 5410 5410 5409 5409 5409 5408 5407 5405 5404 5403 5402 5401
5526 5523 5521 5518 5515 5512 5509 5506 5503 5501 5498 5495 5492 5489 5486 5483 5481 5478 5475 5472 5469 5467 5464 5462 5459 5456 5453 5451 5448 5446 5444 5442 5439 5437 5434 5433 5431 5429 5427 5425 5423 5422 5421 5419 5418 5418 5418 5418 5417 5417 5416 5415 5414 5413 5413 5412 5412 5412 5411 5410 5409 5409 5408 5408 5408 5408 5408 5407 5407 5407 5406 5406 5405 5405 5405 5405 5405 5405 5405 5405 5404 5403 5401 5399 5398 5398